Miscellaneous Local Product
Issued by NWS North Platte, NE

Home | Current Version | Previous Version | Graphics & Text | Print | Product List | Glossary On
Versions: 1 2 3 4 5 6 7 8 9 10 11 12 13 14 15 16 17 18 19 20 21 22 23 24 25 26 27 28 29 30 31 32 33 34 35 36 37 38 39 40 41 42 43 44 45 46 47 48 49 50
009
AXUS43 KLBF 242110
MISLBF


WESTERN AND NORTH CENTRAL NEBRASKA HOURLY WEATHER ROUNDUP
NATIONAL WEATHER SERVICE NORTH PLATTE NE
400 PM CDT FRI MAR 24 2017

NOTE: "FAIR" INDICATES FEW OR NO CLOUDS BELOW 12,000 FEET WITH NO
SIGNIFICANT WEATHER AND/OR OBSTRUCTIONS TO VISIBILITY.

NOTE: STATIONS NOT REPORTING VARIABLES SUCH AS SKY/WEATHER OR
PRESSURE ARE PROVIDED BY RAWS AND APRS NETWORKS AND ARE NOT UNDER
NATIONAL WEATHER SERVICE QUALITY CONTROL.

...OBSERVATIONS IN AND NEAR THE EASTERN PANHANDLE OF NEBRASKA...

CITY           SKY/WX    TMP DP  RH WIND       PRES   REMARKS
PINE RIDGE     MOSUNNY   61  32  33 NE12      30.07F
CHADRON        MOSUNNY   59  31  34 E9        30.08F
SIDNEY         PTSUNNY   52  32  46 N23G29    30.08S
CRESCENT LAKE    N/A     53  30  42 NE15G26     N/A
$$

...OBSERVATIONS IN NORTHERN NEBRASKA AND FAR SOUTHERN SOUTH DAKOTA...

CITY           SKY/WX    TMP DP  RH WIND       PRES   REMARKS
WINNER         FAIR      57  32  38 NE21      30.08S
VALENTINE      CLOUDY    56  33  42 NE20G25   30.06S
THEDFORD       CLOUDY    50  38  64 N22G28    30.04F
AINSWORTH      CLOUDY    49  37  61 N16       30.05F
O`NEILL        DRIZZLE   43  40  91 N16       30.05S
ORD            CLOUDY    41  37  86 N17G29    29.98F
BROKEN BOW     LGT RAIN  42  40  92 N14G28    29.99R
VALENTINE NWR    N/A     52  36  54 NE13G23     N/A
HALSEY           N/A     46  39  76 N9G23       N/A
BUTTE            N/A     44  38  79 N13G20      N/A
CHAMBERS         N/A     43  39  87 N13         N/A
EWING            N/A     41  39  94 N8          N/A
$$

...OBSERVATIONS IN SOUTHWEST NEBRASKA AND FAR NORTHEAST COLORADO...

CITY           SKY/WX    TMP DP  RH WIND       PRES   REMARKS
WRAY           LGT RAIN  41  37  87 N26G38    30.07
HOLYOKE        DRIZZLE   46  37  71 NE20G31   30.08R
IMPERIAL       LGT RAIN  44  39  82 N20       30.06R
OGALLALA       DRIZZLE   48  39  71 NE13      30.06S
NORTH PLATTE   CLOUDY    46  38  73 NE18G25   30.04R
MCCOOK         LGT RAIN  41  40  96 N14       30.01R FOG
LEXINGTON      RAIN      40  38  91 N20       30.00S WCI  31
STAPLETON        N/A     45  39  80 NE5G12      N/A
GOTHENBURG       N/A     40  37  90 NE9         N/A  WCI  34
CALLAWAY         N/A     41  39  94 NE23        N/A
$$

...OBSERVATIONS IN CENTRAL LINCOLN COUNTY AREA...

CITY           SKY/WX    TMP DP  RH WIND       PRES   REMARKS
N.P. AIRPORT   CLOUDY    46  38  73 NE18G25   30.04R
N.P. DOWNTOWN    N/A     46  39  76 NE12G24     N/A
N.P. SOUTHEAST   N/A     45  38  78 N5G12       N/A
N.P. HILLCREST   N/A     46  39  77 NE10G24     N/A
$$

...SOME OBSERVATIONS FROM AROUND THE REGION...

CITY           SKY/WX    TMP DP  RH WIND       PRES   REMARKS
DENVER         PTSUNNY   50  33  52 N20G29    30.12S
LIMON          MIX PCPN  37  35  92 N16       30.10R WCI  28
ASPEN          CLOUDY    46  29  51 N9        30.16F
LARAMIE        PTSUNNY   48  22  35 N15G23    30.14F
GILLETTE       SUNNY     57  31  37 S8        30.06F
CHEYENNE       MOSUNNY   49  22  34 N16G26    30.13S
SCOTTSBLUFF    PTSUNNY   56  27  32 N14G23    30.09F
GRAND ISLAND   LGT RAIN  39  39 100 N28G36    29.95F FOG     WCI  28
OMAHA          CLOUDY    47  42  83 N18       29.91F
SIOUX FALLS    CLOUDY    42  37  82 N17G24    30.07S
PIERRE         CLOUDY    58  32  37 E10       30.09F
RAPID CITY     PTSUNNY   59  30  33 NW7       30.07F
BISMARCK       SUNNY     47  35  63 E9        30.16F
KANSAS CITY    LGT RAIN  59  56  89 E9        29.86S
HILL CITY      CLOUDY    47  43  86 N21       29.93R
WICHITA        MOSUNNY   72  51  47 SE13G22   29.70F
DODGE CITY     CLOUDY    65  27  23 VRB3      29.76R
OKLAHOMA CITY  MOSUNNY   78  26  14 S26G35    29.67F
DALLAS         MOSUNNY   77  49  37 S21G29    29.76F
AMARILLO       PTSUNNY   52  41  66 NW36G48   29.81R
$$




USA.gov is the U.S. government's official web portal to all federal, state and local government web resources and services.